[[{"header":{"parameterUnit":"m.s-1","parameterCategory":1,"la1":30.2991,"la2":30.254,"lo1":-89.0895,"lo2":-89.0444,"dy":0.0017,"dx":0.0017,"nx":28,"ny":28,"refTime":"2025-11-30T03:00:00:Z","depth":0,"parameterNumber":2,"parameterNumberName":"U-component_of_WINDS"},"data":[0,0,0,0,0,0,0,0,0,0,0,0,0,0,0,0,0,0,0,0,0,0,0,0,0,0,0,0,0,0,0,0,0,0,0,0,0,0,0,0,0,0,0,0,0,0,0,0,0,0,0,0,0,0,0,0,0,0,-4.4091,-4.4093,0,-4.4242,-4.4244,-4.4246,-4.4161,-4.4157,-4.4153,-4.4149,-4.4309,-4.4317,-4.4325,0,0,0,0,0,0,0,0,0,0,0,0,0,-4.3734,-4.3741,-4.4091,-4.4093,-4.4095,-4.4242,-4.4244,-4.4246,-4.4162,-4.4157,-4.4152,-4.4147,-4.4307,-4.4316,-4.4326,0,0,0,0,0,0,0,0,0,0,0,0,0,-4.3888,-4.3744,-4.4091,-4.407,-4.407,-4.4242,-4.4244,-4.4247,-4.4163,-4.4157,-4.415,-4.4144,-4.4303,-4.4315,-4.4328,-4.453,0,0,-4.4365,-4.437,0,0,0,0,0,0,0,0,-4.388,-4.3901,-4.4071,-4.4072,-4.4072,-4.4176,-4.4177,-4.4342,-4.4164,-4.4128,-4.4149,-4.4141,-4.4271,-4.4285,-4.4328,-4.4537,-4.4544,-4.4366,-4.4374,-4.4379,-4.4382,0,0,0,0,0,0,0,-4.3869,-4.3894,-4.4151,-4.4074,-4.4074,-4.4055,-4.407,-4.4208,-4.4233,-4.413,-4.4125,-4.4143,-4.427,-4.4316,-4.4331,-4.4546,-4.4366,-4.4377,-4.4384,-4.4389,-4.4932,-4.4939,0,0,0,0,0,0,-4.3859,-4.3886,-4.4146,-4.4155,-4.3958,-4.4067,-4.4083,-4.4149,-4.4231,-4.4237,-4.4149,-4.4139,-4.4298,-4.4316,-4.4336,-4.458,-4.4379,-4.439,-4.4397,-4.4925,-4.4934,-4.4942,0,0,0,0,0,0,-4.3852,-4.3883,-4.414,-4.4019,-4.405,-4.408,-4.4154,-4.4156,-4.4202,-4.4245,-4.4249,-4.4191,-4.4294,-4.4319,-4.4482,-4.4584,-4.4396,-4.4407,-4.4917,-4.4928,-4.4938,-4.5069,0,0,0,0,0,0,-4.3842,-4.3881,-4.3956,-4.4022,-4.4057,-4.4283,-4.416,-4.4163,-4.4223,-4.4211,-4.4286,-4.4292,-4.4291,-4.4464,-4.4495,-4.4598,-4.4417,-4.4908,-4.4922,-4.4934,-4.5056,-4.5083,-4.5106,0,0,0,0,0,-4.3829,-4.3988,-4.3961,-4.3993,-4.4152,-4.4288,-4.4309,-4.4302,-4.4231,-4.4309,-4.4336,-4.429,-4.4568,-4.4482,-4.4515,-4.4624,-4.4902,-4.4918,-4.4933,-4.5044,-4.5077,-4.5105,0,0,0,0,0,0,-4.3936,-4.3996,-4.3967,-4.4151,-4.4215,-4.4274,-4.4371,-4.4337,-4.4424,-4.4411,-4.44,-4.4418,-4.4589,-4.4622,-4.4525,-4.4825,-4.4724,-4.4747,-4.4797,-4.4829,-4.4853,-4.4843,-4.4427,0,0,0,0,0,-4.398,-4.4084,-4.4132,-4.429,-4.4324,-4.4342,-4.4401,-4.439,-4.4457,-4.4485,-4.4524,-4.4593,-4.4695,-4.4763,-4.486,-4.5059,-4.5076,-4.5151,-4.5176,-4.5196,-4.5217,-4.5328,-4.5362,-4.4994,-4.4994,-4.4993,0,0,-4.4075,-4.412,-4.4187,-4.4313,-4.4361,-4.4471,-4.4366,-4.4486,-4.4568,-4.4503,-4.466,-4.4692,-4.4768,-4.4951,-4.5033,-4.4984,-4.5322,-4.5216,-4.5232,-4.5242,-4.5348,-4.5382,-4.5414,-4.5004,-4.5002,-4.5001,0,0,-4.4302,-4.4346,-4.4484,-4.4534,-4.4608,-4.462,-4.4653,-4.4717,-4.4736,-4.4893,-4.4847,-4.4945,-4.5122,-4.5178,-4.523,-4.5481,-4.5442,-4.5512,-4.5645,-4.5752,-4.5781,-4.5807,-4.5899,-4.5932,-4.5533,-4.5533,-4.5533,0,-4.4411,-4.4572,-4.4559,-4.4684,-4.4742,-4.4686,-4.4827,-4.4877,-4.498,-4.5022,-4.4965,-4.5187,-4.5233,-4.543,-4.5491,-4.5534,-4.5574,-4.5505,-4.5778,-4.5804,-4.5828,-4.5915,-4.595,-4.5541,-4.554,-4.554,-4.5539,0,-4.4703,-4.4816,-4.4918,-4.5018,-4.5087,-4.5219,-4.5228,-4.53,-4.5284,-4.5302,-4.5464,-4.5518,-4.5626,-4.5671,-4.5657,-4.5867,-4.5834,-4.5778,-4.5677,-4.5871,-4.5954,-4.5987,-4.5553,-4.555,-4.5548,-4.5546,0,0,-4.5003,-4.5094,-4.5132,-4.5177,-4.5255,-4.5344,-4.5474,-4.5578,-4.5641,-4.5714,-4.5825,-4.5976,-4.5925,-4.5984,-4.5975,-4.6069,-4.6267,-4.6001,-4.6003,-4.6051,-4.6506,-4.655,-4.6589,-4.6241,-4.6247,-4.6252,-4.65,0,-4.5238,-4.5464,-4.5457,-4.5668,-4.5774,-4.5724,-4.5837,-4.5899,-4.592,-4.6014,-4.6037,-4.6146,-4.6068,-4.6104,-4.6194,-4.6224,-4.6359,-4.6206,-4.6348,-4.6353,-4.6333,-4.6631,-4.6678,-4.6909,-4.6532,-4.6537,-4.6541,0,-4.5542,-4.5625,-4.5847,-4.5911,-4.5955,-4.6057,-4.6153,-4.6242,-4.6312,-4.6321,-4.6387,-4.6364,-4.6498,-4.6392,-4.6579,-4.6475,-4.6532,-4.6556,-4.6565,-4.658,-4.6461,-4.6657,-4.6982,-4.7018,-4.6591,-4.6587,-4.6584,0,-4.5743,-4.5909,-4.6064,-4.6104,-4.6181,-4.6255,-4.6291,-4.6354,-4.6418,-4.6502,-4.6543,-4.6642,-4.6698,-4.6776,-4.6781,-4.6702,-4.6972,-4.6864,-4.6985,-4.6986,-4.7046,-4.7043,-4.7388,-4.7079,-4.7078,-4.7078,-4.7077,0,-4.6007,-4.6146,-4.6155,-4.6251,-4.6405,-4.6395,-4.655,-4.6579,-4.6636,-4.6738,-4.67,-4.6797,-4.6796,-4.6896,-4.6901,-4.7057,-4.7082,-4.7094,-4.7095,-4.71,-4.7098,-4.7139,-4.7124,-4.7087,-4.7085,-4.7083,-4.7082,0,-4.6258,-4.6269,-4.6435,-4.6494,-4.6513,-4.6625,-4.6677,-4.6769,-4.6785,-4.6916,-4.6946,-4.6973,-4.7089,-4.7101,-4.7236,-4.7239,-4.7428,-4.741,-4.7405,-4.7403,-4.7524,-4.7513,-4.7909,-4.7962,-4.7616,-4.7619,-4.7622,0,-4.6427,-4.6533,-4.6603,-4.6668,-4.6708,-4.6813,-4.6878,-4.6873,-4.6942,-4.703,-4.7113,-4.7224,-4.7313,-4.7501,-4.7534,-4.7638,-4.7623,-4.7755,-4.7639,-4.7641,-4.7629,-4.7624,-4.7636,-4.7778,-4.7782,-4.7785,-4.7788,0,-4.6728,-4.6728,-4.6821,-4.6918,-4.6995,-4.7071,-4.7142,-4.7198,-4.7202,-4.7282,-4.7399,-4.7468,-4.7606,-4.7718,-4.782,-4.7859,-4.7827,-4.7823,-4.7858,-4.7865,-4.7859,-4.7867,-4.7469,-4.7815,-4.7812,-4.781,-4.7809,-4.7808,-4.6945,-4.7037,-4.7101,-4.7207,-4.726,-4.7327,-4.7418,-4.7445,-4.7542,-4.7652,-4.7644,-4.7774,-4.7843,-4.7976,-4.8023,-4.8127,-4.8083,-4.8132,-4.8144,-4.8157,-4.8171,-4.784,-4.8145,-4.8144,-4.8143,-4.8143,-4.8142,0,-4.7245,-4.7284,-4.7382,-4.7482,-4.7566,-4.7524,-4.7601,-4.7675,-4.7789,-4.7855,-4.7943,-4.8079,-4.8188,-4.823,-4.8337,-4.8412,-4.84,-4.8441,-4.8437,-4.8447,-4.8202,-4.8163,-4.8449,-4.8449,-4.8449,-4.8449,-4.8449,-4.8449,-4.7412,-4.7566,-4.7575,-4.7756,-4.7794,-4.792,-4.7968,-4.8031,-4.8083,-4.8236,-4.8326,-4.8352,-4.8409,-4.852,-4.862,-4.8629,-4.8672,-4.8721,-4.8724,-4.8495,-4.8464,-4.8435,-4.8398,-4.8729,-4.8729,-4.8961,-4.8963,-4.8965]},{"header":{"parameterUnit":"m.s-1","parameterCategory":1,"la1":30.2991,"la2":30.254,"lo1":-89.0895,"lo2":-89.0444,"dy":0.0017,"dx":0.0017,"nx":28,"ny":28,"refTime":"2025-11-30T03:00:00:Z","depth":0,"parameterNumber":3,"parameterNumberName":"V-component_of_WINDS"},"data":[0,0,0,0,0,0,0,0,0,0,0,0,0,0,0,0,0,0,0,0,0,0,0,0,0,0,0,0,0,0,0,0,0,0,0,0,0,0,0,0,0,0,0,0,0,0,0,0,0,0,0,0,0,0,0,0,0,0,-3.8817,-3.8816,0,-3.8783,-3.8783,-3.8782,-3.8732,-3.8731,-3.873,-3.8729,-3.8694,-3.8694,-3.8694,0,0,0,0,0,0,0,0,0,0,0,0,0,-3.8835,-3.8835,-3.8817,-3.8816,-3.8816,-3.8783,-3.8783,-3.8782,-3.8732,-3.8731,-3.873,-3.8729,-3.8694,-3.8694,-3.8694,0,0,0,0,0,0,0,0,0,0,0,0,0,-3.8817,-3.8835,-3.8817,-3.8787,-3.8784,-3.8783,-3.8783,-3.8782,-3.8732,-3.8731,-3.873,-3.8728,-3.8694,-3.8694,-3.8694,-3.872,0,0,-3.8694,-3.8694,0,0,0,0,0,0,0,0,-3.8818,-3.8817,-3.8792,-3.8789,-3.8786,-3.876,-3.8776,-3.8761,-3.8733,-3.8752,-3.8729,-3.8728,-3.8717,-3.8715,-3.8712,-3.8718,-3.8717,-3.8694,-3.8694,-3.8694,-3.8694,0,0,0,0,0,0,0,-3.882,-3.8818,-3.8804,-3.8792,-3.8788,-3.8775,-3.877,-3.8773,-3.8743,-3.875,-3.8746,-3.8743,-3.8715,-3.8712,-3.8711,-3.8716,-3.8694,-3.8694,-3.8693,-3.8693,-3.8739,-3.874,0,0,0,0,0,0,-3.8825,-3.8819,-3.8805,-3.8803,-3.8799,-3.8775,-3.8771,-3.877,-3.8742,-3.8737,-3.8744,-3.8741,-3.8713,-3.8711,-3.8709,-3.8735,-3.8694,-3.8693,-3.8693,-3.8738,-3.8739,-3.8741,0,0,0,0,0,0,-3.8826,-3.8825,-3.8806,-3.881,-3.8806,-3.8776,-3.8776,-3.877,-3.8767,-3.8738,-3.8732,-3.8747,-3.8712,-3.871,-3.8717,-3.8734,-3.8693,-3.8693,-3.8736,-3.8738,-3.874,-3.879,0,0,0,0,0,0,-3.8827,-3.8825,-3.8835,-3.881,-3.8806,-3.8815,-3.8777,-3.877,-3.8766,-3.8762,-3.8739,-3.8734,-3.8711,-3.8717,-3.8717,-3.8733,-3.8693,-3.8734,-3.8737,-3.8739,-3.8786,-3.8793,-3.8799,0,0,0,0,0,-3.8828,-3.8851,-3.8836,-3.8835,-3.8819,-3.8816,-3.8814,-3.8787,-3.8768,-3.8777,-3.8759,-3.8734,-3.8732,-3.8719,-3.8718,-3.8734,-3.8733,-3.8736,-3.8739,-3.8783,-3.8792,-3.8799,0,0,0,0,0,0,-3.8879,-3.8848,-3.883,-3.8847,-3.8835,-3.8808,-3.8819,-3.8797,-3.879,-3.8786,-3.8753,-3.8748,-3.8759,-3.8747,-3.8733,-3.8755,-3.8729,-3.8732,-3.8763,-3.877,-3.8777,-3.8779,-3.8693,0,0,0,0,0,-3.8893,-3.8894,-3.8866,-3.8883,-3.8878,-3.8849,-3.8847,-3.8828,-3.8814,-3.8808,-3.879,-3.8777,-3.8773,-3.8771,-3.8766,-3.8784,-3.8777,-3.8795,-3.8801,-3.8806,-3.8809,-3.8815,-3.8821,-3.875,-3.875,-3.875,0,0,-3.892,-3.8903,-3.8906,-3.8893,-3.8881,-3.8882,-3.8845,-3.8849,-3.8849,-3.8809,-3.8814,-3.88,-3.8783,-3.8796,-3.88,-3.8786,-3.8827,-3.881,-3.8814,-3.8814,-3.8818,-3.8825,-3.8831,-3.8752,-3.8752,-3.8751,0,0,-3.897,-3.8958,-3.897,-3.8958,-3.8941,-3.8921,-3.8924,-3.89,-3.8889,-3.8894,-3.8864,-3.8863,-3.8858,-3.8846,-3.8839,-3.8883,-3.8859,-3.8882,-3.8914,-3.892,-3.8926,-3.8931,-3.8944,-3.895,-3.8885,-3.8885,-3.8885,0,-3.9007,-3.9007,-3.8979,-3.8983,-3.8977,-3.8941,-3.8951,-3.8942,-3.8923,-3.892,-3.8904,-3.8895,-3.8881,-3.8889,-3.8899,-3.8896,-3.8896,-3.8884,-3.8928,-3.8932,-3.8936,-3.8948,-3.8954,-3.8888,-3.8887,-3.8887,-3.8887,0,-3.9052,-3.9053,-3.9064,-3.9047,-3.9042,-3.905,-3.9021,-3.902,-3.9,-3.8982,-3.8986,-3.8968,-3.8958,-3.8958,-3.894,-3.8963,-3.8954,-3.8934,-3.8906,-3.8946,-3.8957,-3.8962,-3.8892,-3.8891,-3.889,-3.8889,0,0,-3.9134,-3.9099,-3.9104,-3.9094,-3.9071,-3.9071,-3.9076,-3.9066,-3.9064,-3.9052,-3.9055,-3.905,-3.903,-3.9022,-3.9002,-3.9008,-3.904,-3.8986,-3.8985,-3.8995,-3.9062,-3.9076,-3.9082,-3.9025,-3.9025,-3.9026,-3.9062,0,-3.9179,-3.9186,-3.9159,-3.9172,-3.9171,-3.9136,-3.914,-3.9125,-3.9108,-3.9104,-3.9085,-3.9081,-3.9057,-3.9051,-3.9056,-3.9035,-3.9053,-3.9033,-3.9025,-3.9025,-3.9029,-3.9088,-3.9104,-3.9139,-3.9067,-3.9067,-3.9068,0,-3.9232,-3.9222,-3.9235,-3.9209,-3.9207,-3.9212,-3.9198,-3.9196,-3.9178,-3.9165,-3.9156,-3.9131,-3.9133,-3.9107,-3.9107,-3.9094,-3.9089,-3.9079,-3.9079,-3.9076,-3.9048,-3.9086,-3.915,-3.9155,-3.9075,-3.9074,-3.9074,0,-3.9288,-3.9278,-3.9284,-3.9277,-3.9248,-3.9251,-3.9239,-3.922,-3.9214,-3.9202,-3.9198,-3.9187,-3.9181,-3.9172,-3.9144,-3.9129,-3.9147,-3.912,-3.9135,-3.9136,-3.914,-3.914,-3.9203,-3.914,-3.914,-3.9139,-3.9139,0,-3.934,-3.9349,-3.9308,-3.9312,-3.932,-3.9289,-3.9298,-3.9282,-3.9265,-3.9264,-3.9232,-3.9232,-3.9196,-3.9191,-3.917,-3.9172,-3.917,-3.9158,-3.9152,-3.916,-3.9161,-3.9156,-3.9152,-3.9141,-3.914,-3.914,-3.914,0,-3.9404,-3.9378,-3.9381,-3.9352,-3.9345,-3.9352,-3.9327,-3.9328,-3.9309,-3.9307,-3.9305,-3.9274,-3.9266,-3.9238,-3.9224,-3.9209,-3.9218,-3.9207,-3.9224,-3.922,-3.9236,-3.9234,-3.9296,-3.9302,-3.9237,-3.9237,-3.9238,0,-3.9438,-3.9444,-3.9415,-3.9412,-3.9401,-3.9397,-3.939,-3.9359,-3.9354,-3.9333,-3.9336,-3.9326,-3.9315,-3.9304,-3.928,-3.9268,-3.9256,-3.9278,-3.9254,-3.9261,-3.9254,-3.9253,-3.9252,-3.9283,-3.9284,-3.9285,-3.9286,0,-3.95,-3.9486,-3.9479,-3.9467,-3.946,-3.9449,-3.9435,-3.9435,-3.9399,-3.9395,-3.9386,-3.9378,-3.9362,-3.9352,-3.9335,-3.9321,-3.9297,-3.9294,-3.9296,-3.9304,-3.9312,-3.9306,-3.9237,-3.9292,-3.9292,-3.9291,-3.9291,-3.929,-3.9549,-3.9552,-3.9531,-3.9523,-3.951,-3.9498,-3.9497,-3.9477,-3.9469,-3.9454,-3.9436,-3.9429,-3.9408,-3.9384,-3.9371,-3.9364,-3.9351,-3.9356,-3.9356,-3.9357,-3.936,-3.9314,-3.9361,-3.9361,-3.9361,-3.9361,-3.9361,0,-3.9608,-3.9593,-3.9586,-3.9568,-3.9561,-3.9539,-3.9523,-3.9518,-3.9512,-3.9496,-3.9486,-3.9475,-3.9464,-3.9438,-3.9424,-3.9423,-3.9411,-3.942,-3.9419,-3.9416,-3.9374,-3.9372,-3.943,-3.943,-3.943,-3.943,-3.943,-3.943,-3.9638,-3.9641,-3.9624,-3.9619,-3.9603,-3.9596,-3.9588,-3.9576,-3.9562,-3.9551,-3.9542,-3.9525,-3.9504,-3.9487,-3.9476,-3.9468,-3.9463,-3.9476,-3.9465,-3.9426,-3.9419,-3.9413,-3.9411,-3.9476,-3.9476,-3.9507,-3.9507,-3.9507]}]]